Location: Unspecified
(0.0000°N, 0.0000°E)
Time: 16:16:42
(UTC+00:00)

Vanguard 3 - Pass Details

Date: 24 November 2019
Orbit: 508 x 3263 km, 33.3° (Epoch: 12 December)

Event Time Altitude Azimuth Distance (km) Brightness Sun altitude
Rises 21:55:34 0° 290° (WNW) 5,244 11.5 -55.9°
Reaches altitude 10° 22:00:10 10° 281° (W) 3,737 10.7 -56.8°
Enters shadow 22:00:33 11° 280° (W) 3,613 10.6 -56.8°
